Home   Weather   Red Deer   Past weeks

Flag for Canada Past Weather in Red Deer, Alberta, Canada — Yesterday and Last 2 Weeks

Now
19 °F

Light snow. Mostly cloudy.


Feels Like: 9 °F
Forecast: 9 / 20 °F
Wind: 9 mph from North

Location: Red Deer

Current Time: Feb 24, 2017 at 2:43:37 pm

Latest Report: Feb 24, 2017 at 2:00 pm


Visibility: 8 mi

Pressure: 30.31 "Hg (27.15 "Hg at 857m altitude)

Humidity: 68%

Dew Point: 10 °F

Location of Red DeerLocation

Past Weather in Red Deer — Graph

°F

Red Deer Temperature Yesterday

Maximum temperature yesterday: 25 °F (at 1:00 pm)
Minimum temperature yesterday: 14 °F (at 6:00 am)
Average temperature yesterday: 20 °F

High & Low Weather Summary for the Past Weeks

 TemperatureHumidityPressure
High54 °F (Feb 15, 4:00 pm)100% (Feb 18, 7:00 pm)30.31 "Hg (Feb 18, 7:00 pm)
Low-6 °F (Feb 10, 6:00 am)38% (Feb 12, 9:00 pm)29.11 "Hg (Feb 16, 2:00 pm)
Average28 °F78%29.80 "Hg
* Reported Feb 9 1:00 pm — Feb 24 1:23 pm, Red Deer, Weather by CustomWeather, © 2017

Note: Actual official high and low records may vary slightly from our data, if they occured in-between our weather recording intervals... More about our weather records

Advertising

Red Deer Weather History for the Previous 24 Hours

Scroll right to see more
 ConditionsComfort  
Time TempWeatherWind HumidityBarometerVisibility
1:23 pm
Fri, Feb 24
19 °FLight snow. Mostly cloudy.9 mph73%30.31 "Hg6 mi
1:07 pm19 °FLight snow. Partly sunny.10 mph73%30.31 "Hg3 mi
12:47 pm19 °FLight snow. Mostly cloudy.12 mph79%30.31 "Hg2 mi
12:00 pm19 °FLight snow. Mostly cloudy.10 mph73%30.31 "Hg6 mi
11:36 am18 °FLight snow. Mostly cloudy.13 mph86%30.31 "Hg6 mi
11:00 am18 °FLight snow. Mostly cloudy.14 mph93%30.31 "Hg1 mi
10:00 am19 °FLight snow. Overcast.12 mph86%30.28 "Hg1 mi
9:00 am18 °FLight snow. Overcast.7 mph93%30.27 "Hg1 mi
8:29 am18 °FLight snow. Ice fog.5 mph93%30.26 "Hg1 mi
8:00 am16 °FLight snow. Ice fog.3 mph93%30.24 "Hg2 mi
7:24 am16 °FIce fog.5 mph93%30.23 "Hg2 mi
7:00 am14 °FIce fog.6 mph92%30.22 "Hg4 mi
6:00 am14 °FIce fog.3 mph92%30.22 "Hg5 mi
5:00 am16 °FIce fog.5 mph93%30.19 "Hg4 mi
4:00 am16 °FIce fog.No wind93%30.18 "Hg5 mi
3:00 am18 °FIce fog.5 mph93%30.16 "Hg6 mi
2:00 am16 °FIce fog.5 mph93%30.17 "Hg6 mi
1:00 am18 °FIce fog.2 mph93%30.16 "Hg6 mi
12:00 am18 °FOvercast.2 mph93%30.17 "Hg8 mi
11:00 pm
Thu, Feb 23
18 °FPartly cloudy.3 mph100%30.17 "Hg10 mi
10:00 pm19 °FPassing clouds.No wind100%30.16 "Hg10 mi
9:00 pm19 °FPassing clouds.2 mph93%30.16 "Hg10 mi
8:00 pm21 °FPassing clouds.No wind93%30.16 "Hg10 mi
7:00 pm21 °FMostly cloudy.5 mph93%30.16 "Hg10 mi
6:00 pm23 °FPartly sunny.5 mph86%30.15 "Hg10 mi
5:00 pm25 °FPartly sunny.6 mph80%30.14 "Hg10 mi
4:33 pm25 °FLight mixture of precip. Partly sunny.3 mph74%30.14 "Hg10 mi
4:00 pm25 °FPartly sunny.5 mph80%30.15 "Hg8 mi
3:00 pm25 °FLight snow. Mostly cloudy.No wind74%30.16 "Hg3 mi
2:00 pm25 °FLight snow. Partly sunny.2 mph74%30.17 "Hg3 mi
Weather by CustomWeather, © 2017

See weather overviewHow to use our weather pages